,,,PA_Meas_PMT16A,,PR_Meas_QMR101_102,,RH_Meas_QMH101,,SR_Meas_QMS101,,TA_Meas_QMH101,,GenWind,,GenWind,
date,time,status,PA,status,PR,status,RH,status,SR,status,TA,status,DirAvg,status,SpdAvg,
2009-09-04, 00:00:04,VALID,1002.86,VALID,0,VALID,83.0251,VALID,0,VALID,26.7199,VALID,68,VALID,1.02891,
2009-09-04, 00:01:04,VALID,1002.88,VALID,0,VALID,83.1395,VALID,0,VALID,26.7004,VALID,98,VALID,1.16133,
2009-09-04, 00:02:04,VALID,1002.85,VALID,0,VALID,83.2463,VALID,0.100563,VALID,26.6809,VALID,125,VALID,1.44844,
2009-09-04, 00:03:04,VALID,1002.87,VALID,0,VALID,83.376,VALID,0,VALID,26.7024,VALID,110,VALID,1.08398,
2009-09-04, 00:04:04,VALID,1002.86,VALID,0,VALID,83.3913,VALID,0,VALID,26.6614,VALID,88,VALID,1.62422,
2009-09-04, 00:05:04,VALID,1002.85,VALID,0,VALID,83.2997,VALID,0,VALID,26.642,VALID,65,VALID,1.43867,
2009-09-04, 00:06:04,VALID,1002.84,VALID,0,VALID,83.4981,VALID,0,VALID,26.642,VALID,87,VALID,1.27461,
2009-09-04, 00:07:04,VALID,1002.84,VALID,0,VALID,83.6583,VALID,0,VALID,26.603,VALID,114,VALID,0.768359,
2009-09-04, 00:08:04,VALID,1002.83,VALID,0,VALID,83.6964,VALID,0,VALID,26.5835,VALID,120,VALID,0.585938,
2009-09-04, 00:09:04,VALID,1002.85,VALID,0,VALID,83.8872,VALID,0.100563,VALID,26.5835,VALID,105,VALID,0.524219,
2009-09-04, 00:10:04,VALID,1002.81,VALID,0,VALID,84.0779,VALID,0.100563,VALID,26.5446,VALID,108,VALID,0.359766,
2009-09-04, 00:11:04,VALID,1002.82,VALID,0,VALID,83.994,VALID,0,VALID,26.5056,VALID,104,VALID,1.01484,
2009-09-04, 00:12:04,VALID,1002.82,VALID,0,VALID,84.0397,VALID,0,VALID,26.5271,VALID,81,VALID,0.820703,
2009-09-04, 00:13:04,VALID,1002.81,VALID,0,VALID,83.8414,VALID,0,VALID,26.5271,VALID,83,VALID,0.9375,
2009-09-04, 00:14:04,VALID,1002.79,VALID,0,VALID,83.9406,VALID,0,VALID,26.5466,VALID,111,VALID,0.741406,
2009-09-04, 00:15:04,VALID,1002.84,VALID,0,VALID,83.8414,VALID,0,VALID,26.5466,VALID,108,VALID,0.875781,
2009-09-04, 00:16:04,VALID,1002.8,VALID,0,VALID,83.7193,VALID,0,VALID,26.5876,VALID,109,VALID,1.61172,
2009-09-04, 00:17:04,VALID,1002.81,VALID,0,VALID,83.582,VALID,0,VALID,26.5855,VALID,105,VALID,1.26367,
2009-09-04, 00:18:04,VALID,1002.8,VALID,0,VALID,83.5057,VALID,0,VALID,26.6265,VALID,125,VALID,1.36719,
2009-09-04, 00:19:04,VALID,1002.77,VALID,0,VALID,83.4523,VALID,0,VALID,26.605,VALID,111,VALID,1.6125,
2009-09-04, 00:20:04,VALID,1002.75,VALID,0,VALID,83.4371,VALID,0,VALID,26.6245,VALID,126,VALID,0.840234,
2009-09-04, 00:21:04,VALID,1002.76,VALID,0,VALID,83.5896,VALID,0,VALID,26.6245,VALID,110,VALID,0.876562,
2009-09-04, 00:22:04,VALID,1002.73,VALID,0,VALID,83.4828,VALID,0,VALID,26.6245,VALID,121,VALID,1.38125,
2009-09-04, 00:23:04,VALID,1002.74,VALID,0,VALID,83.4523,VALID,0,VALID,26.6245,VALID,110,VALID,1.20313,
2009-09-04, 00:24:04,VALID,1002.67,VALID,0,VALID,83.3989,VALID,0,VALID,26.6635,VALID,94,VALID,0.875781,
2009-09-04, 00:25:04,VALID,1002.66,VALID,0,VALID,83.4447,VALID,0,VALID,26.644,VALID,95,VALID,0.744922,
2009-09-04, 00:26:04,VALID,1002.65,VALID,0,VALID,83.2235,VALID,0,VALID,26.6635,VALID,114,VALID,1.91641,
2009-09-04, 00:27:04,VALID,1002.64,VALID,0,VALID,83.2692,VALID,0,VALID,26.683,VALID,87,VALID,0.690625,
2009-09-04, 00:28:04,VALID,1002.6,VALID,0,VALID,83.109,VALID,0,VALID,26.7219,VALID,124,VALID,1.80078,
2009-09-04, 00:29:04,VALID,1002.58,VALID,0,VALID,83.1472,VALID,0,VALID,26.7239,VALID,99,VALID,0.907812,
2009-09-04, 00:30:04,VALID,1002.58,VALID,0,VALID,83.1929,VALID,0,VALID,26.7024,VALID,102,VALID,1.01719,
2009-09-04, 00:31:04,VALID,1002.58,VALID,0,VALID,83.0327,VALID,0,VALID,26.7414,VALID,103,VALID,1.10977,
2009-09-04, 00:32:04,VALID,1002.57,VALID,0,VALID,82.987,VALID,0,VALID,26.7414,VALID,109,VALID,1.67266,
2009-09-04, 00:33:04,VALID,1002.55,VALID,0,VALID,82.9336,VALID,0,VALID,26.7609,VALID,115,VALID,1.10547,
2009-09-04, 00:34:04,VALID,1002.52,VALID,0,VALID,83.0632,VALID,0,VALID,26.7609,VALID,83,VALID,0.641797,
2009-09-04, 00:35:04,VALID,1002.49,VALID,0,VALID,83.1701,VALID,0,VALID,26.7629,VALID,113,VALID,0.377344,
2009-09-04, 00:36:04,VALID,1002.5,VALID,0,VALID,83.109,VALID,0,VALID,26.7219,VALID,97,VALID,1.26758,
2009-09-04, 00:37:04,VALID,1002.47,VALID,0,VALID,83.2006,VALID,0,VALID,26.7219,VALID,109,VALID,0.642187,
2009-09-04, 00:38:04,VALID,1002.45,VALID,0,VALID,83.1472,VALID,0,VALID,26.7414,VALID,102,VALID,1.36836,
2009-09-04, 00:39:04,VALID,1002.47,VALID,0,VALID,83.254,VALID,0,VALID,26.7219,VALID,105,VALID,0.765625,
2009-09-04, 00:40:04,VALID,1002.45,VALID,0,VALID,83.2769,VALID,0,VALID,26.7629,VALID,101,VALID,0.904688,
2009-09-04, 00:41:04,VALID,1002.43,VALID,0,VALID,83.2997,VALID,0,VALID,26.7024,VALID,109,VALID,0.970703,
2009-09-04, 00:42:04,VALID,1002.41,VALID,0,VALID,83.3531,VALID,0,VALID,26.683,VALID,66,VALID,0.477734,
2009-09-04, 00:43:04,VALID,1002.35,VALID,0,VALID,83.4218,VALID,0,VALID,26.6635,VALID,62,VALID,0.846875,
2009-09-04, 00:44:04,VALID,1002.34,VALID,0,VALID,83.2235,VALID,0,VALID,26.6635,VALID,72,VALID,0.821094,
2009-09-04, 00:45:04,VALID,1002.28,VALID,0,VALID,83.2616,VALID,0,VALID,26.6225,VALID,109,VALID,1.03164,
2009-09-04, 00:46:04,VALID,1002.25,VALID,0,VALID,83.2769,VALID,0,VALID,26.644,VALID,82,VALID,0.875,
2009-09-04, 00:47:04,VALID,1002.2,VALID,0,VALID,83.3837,VALID,0,VALID,26.644,VALID,100,VALID,0.883984,
2009-09-04, 00:48:04,VALID,1002.2,VALID,0,VALID,83.3837,VALID,0,VALID,26.6265,VALID,87,VALID,0.719922,
2009-09-04, 00:49:04,VALID,1002.15,VALID,0,VALID,83.0861,VALID,0,VALID,26.6245,VALID,107,VALID,1.41719,
2009-09-04, 00:50:04,VALID,1002.14,VALID,0,VALID,82.8268,VALID,0,VALID,26.683,VALID,114,VALID,2.04727,
2009-09-04, 00:51:04,VALID,1002.13,VALID,0,VALID,82.4377,VALID,0,VALID,26.7219,VALID,89,VALID,1.95313,
2009-09-04, 00:52:04,VALID,1002.15,VALID,0,VALID,82.1783,VALID,0,VALID,26.7609,VALID,88,VALID,0.742578,
2009-09-04, 00:53:04,VALID,1002.13,VALID,0,VALID,82.2622,VALID,0,VALID,26.7609,VALID,124,VALID,1.03437,
2009-09-04, 00:54:04,VALID,1002.1,VALID,0,VALID,82.0868,VALID,0,VALID,26.7804,VALID,107,VALID,1.06367,
2009-09-04, 00:55:04,VALID,1002.13,VALID,0,VALID,81.9571,VALID,0,VALID,26.8193,VALID,112,VALID,1.50469,
2009-09-04, 00:56:04,VALID,1002.11,VALID,0,VALID,81.774,VALID,0,VALID,26.8603,VALID,101,VALID,1.14609,
2009-09-04, 00:57:04,VALID,1002.1,VALID,0,VALID,81.5985,VALID,0,VALID,26.8583,VALID,107,VALID,1.47031,
2009-09-04, 00:58:04,VALID,1002.12,VALID,0,VALID,81.507,VALID,0,VALID,26.8583,VALID,111,VALID,1.52227,
2009-09-04, 00:59:04,VALID,1002.09,VALID,0,VALID,81.4993,VALID,0,VALID,26.8583,VALID,97,VALID,0.786719,
2009-09-04, 01:00:04,VALID,1002.08,VALID,0,VALID,81.5832,VALID,0,VALID,26.8583,VALID,98,VALID,0.729688,
2009-09-04, 01:01:04,VALID,1002.09,VALID,0,VALID,81.8579,VALID,0,VALID,26.8193,VALID,72,VALID,0.505078,
2009-09-04, 01:02:04,VALID,1002.08,VALID,0,VALID,81.9952,VALID,0,VALID,26.7804,VALID,99,VALID,1.6875,
2009-09-04, 01:03:04,VALID,1002.06,VALID,0,VALID,82.1936,VALID,0,VALID,26.7804,VALID,101,VALID,1.47578,
2009-09-04, 01:04:04,VALID,1002.08,VALID,0,VALID,82.163,VALID,0,VALID,26.7804,VALID,94,VALID,1.31719,
2009-09-04, 01:05:04,VALID,1002.07,VALID,0,VALID,82.1936,VALID,0,VALID,26.7804,VALID,70,VALID,1.48711,
2009-09-04, 01:06:04,VALID,1002.09,VALID,0,VALID,82.0868,VALID,0,VALID,26.7998,VALID,102,VALID,1.29141,
2009-09-04, 01:07:04,VALID,1002.07,VALID,0,VALID,82.247,VALID,0,VALID,26.7998,VALID,128,VALID,0.789453,
2009-09-04, 01:08:04,VALID,1002.12,VALID,0,VALID,82.2012,VALID,0,VALID,26.7998,VALID,107,VALID,1.65586,
2009-09-04, 01:09:04,VALID,1002.12,VALID,0,VALID,82.4529,VALID,0,VALID,26.8019,VALID,112,VALID,0.824609,
2009-09-04, 01:10:04,VALID,1002.11,VALID,0,VALID,82.3995,VALID,0,VALID,26.7609,VALID,81,VALID,0.913672,
2009-09-04, 01:11:04,VALID,1002.12,VALID,0,VALID,82.6208,VALID,0,VALID,26.7414,VALID,68,VALID,0.820703,
2009-09-04, 01:12:04,VALID,1002.1,VALID,0,VALID,82.6971,VALID,0,VALID,26.7434,VALID,48,VALID,0.942578,
2009-09-04, 01:13:04,VALID,1002.11,VALID,0,VALID,82.8115,VALID,0,VALID,26.7219,VALID,92,VALID,1.10273,
2009-09-04, 01:14:04,VALID,1002.08,VALID,0,VALID,83.0098,VALID,0,VALID,26.7024,VALID,42,VALID,0.83125,
2009-09-04, 01:15:04,VALID,1002.05,VALID,0,VALID,83.0938,VALID,0,VALID,26.7024,VALID,52,VALID,0.884375,
2009-09-04, 01:16:04,VALID,1002.07,VALID,0,VALID,83.2616,VALID,0,VALID,26.683,VALID,92,VALID,0.290625,
2009-09-04, 01:17:04,VALID,1002.03,VALID,0,VALID,83.2921,VALID,0,VALID,26.6635,VALID,84,VALID,0.710938,
2009-09-04, 01:18:04,VALID,1002,VALID,0,VALID,83.4371,VALID,0,VALID,26.644,VALID,13,VALID,0.519141,
2009-09-04, 01:19:04,VALID,1002.01,VALID,0,VALID,83.6278,VALID,0,VALID,26.644,VALID,86,VALID,1.31523,
2009-09-04, 01:20:04,VALID,1002,VALID,0,VALID,83.6888,VALID,0,VALID,26.605,VALID,67,VALID,0.672266,
2009-09-04, 01:21:04,VALID,1001.93,VALID,0,VALID,83.6888,VALID,0,VALID,26.605,VALID,48,VALID,1.20313,
2009-09-04, 01:22:04,VALID,1001.93,VALID,0,VALID,83.6736,VALID,0,VALID,26.605,VALID,89,VALID,1.22227,
2009-09-04, 01:23:04,VALID,1001.92,VALID,0,VALID,83.7346,VALID,0,VALID,26.605,VALID,39,VALID,0.220703,
2009-09-04, 01:24:04,VALID,1001.91,VALID,0,VALID,83.7575,VALID,0,VALID,26.605,VALID,83,VALID,0.888281,
2009-09-04, 01:25:04,VALID,1001.91,VALID,0,VALID,83.788,VALID,0,VALID,26.5641,VALID,77,VALID,0.292578,
2009-09-04, 01:26:04,VALID,1001.88,VALID,0,VALID,83.9024,VALID,0,VALID,26.5855,VALID,56,VALID,0.859375,
2009-09-04, 01:27:04,VALID,1001.86,VALID,0,VALID,83.7956,VALID,0,VALID,26.5661,VALID,114,VALID,1.43789,
2009-09-04, 01:28:04,VALID,1001.89,VALID,0,VALID,83.6964,VALID,0,VALID,26.607,VALID,117,VALID,1.21992,
2009-09-04, 01:29:04,VALID,1001.88,VALID,0,VALID,83.4218,VALID,0,VALID,26.644,VALID,107,VALID,1.31641,
2009-09-04, 01:30:04,VALID,1001.88,VALID,0,VALID,83.1929,VALID,0,VALID,26.685,VALID,105,VALID,1.20664,
2009-09-04, 01:31:04,VALID,1001.9,VALID,0,VALID,83.1014,VALID,0,VALID,26.7024,VALID,102,VALID,1.03516,
2009-09-04, 01:32:04,VALID,1001.85,VALID,0,VALID,82.7352,VALID,0,VALID,26.7804,VALID,111,VALID,2.02891,
2009-09-04, 01:33:04,VALID,1001.88,VALID,0,VALID,82.4987,VALID,0,VALID,26.7998,VALID,105,VALID,1.11211,
2009-09-04, 01:34:04,VALID,1001.87,VALID,0,VALID,82.5521,VALID,0,VALID,26.7998,VALID,51,VALID,0.692578,
2009-09-04, 01:35:04,VALID,1001.86,VALID,0,VALID,82.6437,VALID,0,VALID,26.7804,VALID,145,VALID,0.48125,
2009-09-04, 01:36:04,VALID,1001.86,VALID,0,VALID,82.6818,VALID,0,VALID,26.7394,VALID,85,VALID,1.40195,
2009-09-04, 01:37:04,VALID,1001.84,VALID,0,VALID,82.7581,VALID,0,VALID,26.7824,VALID,120,VALID,1.27813,
2009-09-04, 01:38:04,VALID,1001.87,VALID,0,VALID,82.7047,VALID,0,VALID,26.7609,VALID,152,VALID,1.29453,
2009-09-04, 01:39:04,VALID,1001.89,VALID,0,VALID,82.6131,VALID,0,VALID,26.7998,VALID,115,VALID,1.40352,
2009-09-04, 01:40:04,VALID,1001.87,VALID,0,VALID,82.7276,VALID,0,VALID,26.7804,VALID,108,VALID,0.661328,
2009-09-04, 01:41:04,VALID,1001.87,VALID,0,VALID,82.7886,VALID,0,VALID,26.7609,VALID,74,VALID,0.204297,
2009-09-04, 01:42:04,VALID,1001.84,VALID,0,VALID,82.8496,VALID,0,VALID,26.7434,VALID,24,VALID,0.456641,
2009-09-04, 01:43:04,VALID,1001.87,VALID,0,VALID,82.903,VALID,0,VALID,26.7024,VALID,87,VALID,1.15742,
2009-09-04, 01:44:04,VALID,1001.86,VALID,0,VALID,82.8496,VALID,0,VALID,26.7024,VALID,77,VALID,1.02539,
2009-09-04, 01:45:04,VALID,1001.84,VALID,0,VALID,82.7352,VALID,0,VALID,26.7024,VALID,99,VALID,1.43984,
2009-09-04, 01:46:04,VALID,1001.86,VALID,0,VALID,82.8115,VALID,0,VALID,26.683,VALID,98,VALID,1.55117,
2009-09-04, 01:47:04,VALID,1001.87,VALID,0,VALID,82.8954,VALID,0,VALID,26.7045,VALID,100,VALID,0.923437,
2009-09-04, 01:48:04,VALID,1001.89,VALID,0,VALID,82.8573,VALID,0,VALID,26.683,VALID,33,VALID,0.783594,
2009-09-04, 01:49:04,VALID,1001.89,VALID,0,VALID,82.8344,VALID,0,VALID,26.6635,VALID,103,VALID,0.652344,
2009-09-04, 01:50:04,VALID,1001.88,VALID,0,VALID,82.7962,VALID,0,VALID,26.6245,VALID,110,VALID,0.930859,
2009-09-04, 01:51:04,VALID,1001.87,VALID,0,VALID,82.9259,VALID,0,VALID,26.6245,VALID,41,VALID,0.883984,
2009-09-04, 01:52:04,VALID,1001.88,VALID,0,VALID,82.842,VALID,0,VALID,26.605,VALID,77,VALID,1.38789,
2009-09-04, 01:53:04,VALID,1001.87,VALID,0,VALID,82.5826,VALID,0,VALID,26.644,VALID,66,VALID,1.68008,
2009-09-04, 01:54:04,VALID,1001.89,VALID,0,VALID,82.4682,VALID,0,VALID,26.683,VALID,32,VALID,1.72187,
2009-09-04, 01:55:04,VALID,1001.9,VALID,0,VALID,82.4606,VALID,0,VALID,26.7024,VALID,80,VALID,1.90977,
2009-09-04, 01:56:04,VALID,1001.88,VALID,0,VALID,82.4301,VALID,0,VALID,26.7045,VALID,44,VALID,1.07734,
2009-09-04, 01:57:04,VALID,1001.91,VALID,0,VALID,82.636,VALID,0,VALID,26.644,VALID,26,VALID,1.14727,
2009-09-04, 01:58:04,VALID,1001.88,VALID,0,VALID,82.7657,VALID,0,VALID,26.605,VALID,31,VALID,1.04023,
2009-09-04, 01:59:04,VALID,1001.92,VALID,0,VALID,82.8496,VALID,0,VALID,26.605,VALID,20,VALID,1.06289,
2009-09-04, 02:00:04,VALID,1001.91,VALID,0,VALID,82.9336,VALID,0,VALID,26.5876,VALID,57,VALID,0.733984,
2009-09-04, 02:01:04,VALID,1001.92,VALID,0,VALID,83.1548,VALID,0,VALID,26.5661,VALID,73,VALID,1.10938,
2009-09-04, 02:02:04,VALID,1001.89,VALID,0,VALID,83.3303,VALID,0,VALID,26.5076,VALID,27,VALID,0.942969,
2009-09-04, 02:03:04,VALID,1001.88,VALID,0,VALID,83.5668,VALID,0,VALID,26.4687,VALID,338,VALID,0.892969,
2009-09-04, 02:04:04,VALID,1001.89,VALID,0,VALID,83.9711,VALID,0,VALID,26.4317,VALID,8,VALID,0.694141,
2009-09-04, 02:05:04,VALID,1001.88,VALID,0,VALID,84.3907,VALID,0,VALID,26.3538,VALID,17,VALID,0.610937,
2009-09-04, 02:06:04,VALID,1001.87,VALID,0,VALID,84.7263,VALID,0,VALID,26.2739,VALID,329,VALID,0.476953,
2009-09-04, 02:07:04,VALID,1001.88,VALID,0,VALID,85.0468,VALID,0,VALID,26.2154,VALID,48,VALID,0.834375,
2009-09-04, 02:08:04,VALID,1001.86,VALID,0,VALID,85.2299,VALID,0,VALID,26.1979,VALID,352,VALID,1.04492,
2009-09-04, 02:09:04,VALID,1001.85,VALID,0,VALID,85.7028,VALID,0,VALID,26.0985,VALID,60,VALID,0.296875,
2009-09-04, 02:10:04,VALID,1001.88,VALID,0,VALID,85.8554,VALID,0,VALID,26.0206,VALID,357,VALID,0.416406,
2009-09-04, 02:11:04,VALID,1001.87,VALID,0,VALID,86.2216,VALID,0,VALID,25.9427,VALID,357,VALID,0.273438,
2009-09-04, 02:12:04,VALID,1001.86,VALID,0,VALID,86.5725,VALID,0,VALID,25.9232,VALID,10,VALID,0.481641,
2009-09-04, 02:13:04,VALID,1001.82,VALID,0,VALID,86.5115,VALID,0,VALID,25.9213,VALID,49,VALID,1.1043,
2009-09-04, 02:14:04,VALID,1001.82,VALID,0,VALID,86.336,VALID,0,VALID,26.0012,VALID,96,VALID,0.650781,
2009-09-04, 02:15:04,VALID,1001.82,VALID,0,VALID,85.8783,VALID,0,VALID,26.0576,VALID,95,VALID,1.73477,
2009-09-04, 02:16:04,VALID,1001.8,VALID,0,VALID,85.5045,VALID,0,VALID,26.155,VALID,17,VALID,0.583984,
2009-09-04, 02:17:04,VALID,1001.81,VALID,0,VALID,85.1841,VALID,0,VALID,26.194,VALID,44,VALID,0.602344,
2009-09-04, 02:18:04,VALID,1001.8,VALID,0,VALID,85.0315,VALID,0,VALID,26.2134,VALID,45,VALID,0.551172,
2009-09-04, 02:19:04,VALID,1001.81,VALID,0,VALID,84.9628,VALID,0.100563,VALID,26.2329,VALID,48,VALID,0.569141,
2009-09-04, 02:20:04,VALID,1001.81,VALID,0,VALID,85.0086,VALID,0,VALID,26.2329,VALID,68,VALID,1.21641,
2009-09-04, 02:21:04,VALID,1001.8,VALID,0,VALID,85.1078,VALID,0.100563,VALID,26.194,VALID,83,VALID,0.667969,
2009-09-04, 02:22:04,VALID,1001.75,VALID,0,VALID,85.2299,VALID,0,VALID,26.1745,VALID,89,VALID,1.14375,
2009-09-04, 02:23:04,VALID,1001.74,VALID,0,VALID,85.2985,VALID,0,VALID,26.155,VALID,55,VALID,0.515625,
2009-09-04, 02:24:04,VALID,1001.75,VALID,0,VALID,85.207,VALID,0.100563,VALID,26.1355,VALID,96,VALID,0.851563,
2009-09-04, 02:25:04,VALID,1001.72,VALID,0,VALID,85.2222,VALID,0.100563,VALID,26.1355,VALID,62,VALID,0.966797,
2009-09-04, 02:26:04,VALID,1001.73,VALID,0,VALID,85.329,VALID,0.100563,VALID,26.116,VALID,75,VALID,0.953906,
2009-09-04, 02:27:04,VALID,1001.71,VALID,0,VALID,85.3672,VALID,0,VALID,26.0771,VALID,4,VALID,0.373828,
2009-09-04, 02:28:04,VALID,1001.7,VALID,0,VALID,85.4969,VALID,0,VALID,26.0596,VALID,4,VALID,0.369141,
2009-09-04, 02:29:04,VALID,1001.69,VALID,0,VALID,85.6342,VALID,0,VALID,26.0421,VALID,26,VALID,0.315234,
2009-09-04, 02:30:04,VALID,1001.68,VALID,0,VALID,85.7181,VALID,0,VALID,25.9817,VALID,66,VALID,0.332812,
2009-09-04, 02:31:04,VALID,1001.66,VALID,0,VALID,85.8173,VALID,0,VALID,25.9622,VALID,37,VALID,0.415234,
2009-09-04, 02:32:04,VALID,1001.66,VALID,0,VALID,85.7639,VALID,0,VALID,25.9427,VALID,45,VALID,1.55078,
2009-09-04, 02:33:04,VALID,1001.66,VALID,0,VALID,85.6494,VALID,0,VALID,25.9817,VALID,30,VALID,0.693359,
2009-09-04, 02:34:04,VALID,1001.66,VALID,0,VALID,85.7562,VALID,0,VALID,25.9622,VALID,34,VALID,0.647656,
2009-09-04, 02:35:04,VALID,1001.64,VALID,0,VALID,85.7486,VALID,0,VALID,25.9232,VALID,15,VALID,0.359375,
2009-09-04, 02:36:04,VALID,1001.59,VALID,0,VALID,85.7868,VALID,0,VALID,25.9232,VALID,27,VALID,0.298438,
2009-09-04, 02:37:04,VALID,1001.61,VALID,0,VALID,85.7486,VALID,0,VALID,25.9232,VALID,22,VALID,0.702344,
2009-09-04, 02:38:04,VALID,1001.62,VALID,0,VALID,85.535,VALID,0,VALID,25.9817,VALID,72,VALID,0.971875,
2009-09-04, 02:39:04,VALID,1001.63,VALID,0,VALID,85.3443,VALID,0,VALID,26.0206,VALID,80,VALID,0.839063,
2009-09-04, 02:40:04,VALID,1001.6,VALID,0,VALID,85.3138,VALID,0,VALID,26.0206,VALID,73,VALID,0.136328,
2009-09-04, 02:41:04,VALID,1001.63,VALID,0,VALID,85.3061,VALID,0,VALID,25.9817,VALID,42,VALID,0.939844,
2009-09-04, 02:42:04,VALID,1001.62,VALID,0,VALID,85.3138,VALID,0,VALID,26.0012,VALID,41,VALID,0.358984,
2009-09-04, 02:43:04,VALID,1001.61,VALID,0,VALID,85.4969,VALID,0,VALID,25.9817,VALID,27,VALID,1.35117,
2009-09-04, 02:44:04,VALID,1001.6,VALID,0,VALID,85.5121,VALID,0,VALID,25.9817,VALID,71,VALID,1.10117,
2009-09-04, 02:45:04,VALID,1001.61,VALID,0,VALID,85.5884,VALID,0,VALID,25.9602,VALID,38,VALID,0.851563,
2009-09-04, 02:46:04,VALID,1001.62,VALID,0,VALID,85.5274,VALID,0,VALID,26.0012,VALID,65,VALID,0.839063,
2009-09-04, 02:47:04,VALID,1001.62,VALID,0,VALID,85.4435,VALID,0,VALID,25.9817,VALID,56,VALID,0.0320312,
2009-09-04, 02:48:04,VALID,1001.61,VALID,0,VALID,85.5732,VALID,0,VALID,25.9602,VALID,84,VALID,0.816016,
2009-09-04, 02:49:04,VALID,1001.6,VALID,0,VALID,85.6266,VALID,0,VALID,25.9427,VALID,43,VALID,0.319531,
2009-09-04, 02:50:04,VALID,1001.6,VALID,0,VALID,85.7334,VALID,0,VALID,25.9427,VALID,24,VALID,0.237109,
2009-09-04, 02:51:04,VALID,1001.59,VALID,0,VALID,85.7944,VALID,0,VALID,25.9232,VALID,80,VALID,1.12305,
2009-09-04, 02:52:04,VALID,1001.56,VALID,0,VALID,85.8325,VALID,0,VALID,25.9232,VALID,57,VALID,0.534766,
2009-09-04, 02:53:04,VALID,1001.59,VALID,0,VALID,85.8859,VALID,0,VALID,25.9038,VALID,84,VALID,0.554297,
2009-09-04, 02:54:04,VALID,1001.57,VALID,0,VALID,85.9317,VALID,0,VALID,25.9018,VALID,74,VALID,0.662891,
2009-09-04, 02:55:04,VALID,1001.59,VALID,0,VALID,86.008,VALID,0,VALID,25.9232,VALID,24,VALID,0.800391,
2009-09-04, 02:56:04,VALID,1001.57,VALID,0,VALID,85.8783,VALID,0,VALID,25.9427,VALID,39,VALID,1.10625,
2009-09-04, 02:57:04,VALID,1001.58,VALID,0,VALID,85.5732,VALID,0,VALID,26.0012,VALID,74,VALID,1.50742,
2009-09-04, 02:58:04,VALID,1001.57,VALID,0,VALID,85.4358,VALID,0,VALID,26.0206,VALID,88,VALID,1.26328,
2009-09-04, 02:59:04,VALID,1001.56,VALID,0,VALID,85.4129,VALID,0,VALID,26.0187,VALID,97,VALID,0.54375,
2009-09-04, 03:00:04,VALID,1001.59,VALID,0,VALID,85.3901,VALID,0,VALID,26.0206,VALID,55,VALID,0.650391,
2009-09-04, 03:01:04,VALID,1001.58,VALID,0,VALID,85.3901,VALID,0,VALID,26.0187,VALID,16,VALID,1.09414,
2009-09-04, 03:02:04,VALID,1001.55,VALID,0,VALID,85.3138,VALID,0,VALID,26.0401,VALID,96,VALID,1.01602,
2009-09-04, 03:03:04,VALID,1001.55,VALID,0,VALID,85.1307,VALID,0,VALID,26.0966,VALID,68,VALID,0.736328,
2009-09-04, 03:04:04,VALID,1001.55,VALID,0,VALID,85.0086,VALID,0,VALID,26.118,VALID,52,VALID,0.509375,
2009-09-04, 03:05:04,VALID,1001.57,VALID,0,VALID,85.0239,VALID,0,VALID,26.1375,VALID,82,VALID,0.347656,
2009-09-04, 03:06:04,VALID,1001.57,VALID,0,VALID,85.0239,VALID,0,VALID,26.12,VALID,85,VALID,0.872266,
2009-09-04, 03:07:04,VALID,1001.56,VALID,0,VALID,85.062,VALID,0,VALID,26.1375,VALID,104,VALID,1.50195,
2009-09-04, 03:08:04,VALID,1001.61,VALID,0,VALID,85.0162,VALID,0,VALID,26.157,VALID,51,VALID,0.543359,
2009-09-04, 03:09:04,VALID,1001.57,VALID,0,VALID,85.0544,VALID,0,VALID,26.118,VALID,115,VALID,0.572266,
2009-09-04, 03:10:04,VALID,1001.58,VALID,0,VALID,85.0086,VALID,0,VALID,26.1375,VALID,86,VALID,0.948828,
2009-09-04, 03:11:04,VALID,1001.58,VALID,0,VALID,84.9705,VALID,0,VALID,26.1375,VALID,113,VALID,0.765234,
2009-09-04, 03:12:04,VALID,1001.58,VALID,0,VALID,85.0162,VALID,0,VALID,26.116,VALID,74,VALID,0.696875,
2009-09-04, 03:13:04,VALID,1001.62,VALID,0,VALID,84.9705,VALID,0,VALID,26.1375,VALID,81,VALID,0.798047,
2009-09-04, 03:14:04,VALID,1001.63,VALID,0,VALID,85.0468,VALID,0,VALID,26.118,VALID,78,VALID,0.486328,
2009-09-04, 03:15:04,VALID,1001.62,VALID,0,VALID,85.1078,VALID,0,VALID,26.0985,VALID,49,VALID,0.215234,
2009-09-04, 03:16:04,VALID,1001.64,VALID,0,VALID,85.2756,VALID,0,VALID,26.0791,VALID,53,VALID,0.344141,
2009-09-04, 03:17:04,VALID,1001.65,VALID,0,VALID,85.3672,VALID,0,VALID,26.0791,VALID,62,VALID,0.380078,
2009-09-04, 03:18:04,VALID,1001.65,VALID,0,VALID,85.5732,VALID,0,VALID,26.0401,VALID,138,VALID,0.464844,
2009-09-04, 03:19:04,VALID,1001.64,VALID,0,VALID,85.6266,VALID,0,VALID,26.0206,VALID,97,VALID,0.561328,
2009-09-04, 03:20:04,VALID,1001.65,VALID,0,VALID,85.6113,VALID,0,VALID,26.0401,VALID,35,VALID,0.886328,
2009-09-04, 03:21:04,VALID,1001.65,VALID,0,VALID,85.596,VALID,0,VALID,25.9992,VALID,53,VALID,0.432813,
2009-09-04, 03:22:04,VALID,1001.65,VALID,0,VALID,85.6266,VALID,0,VALID,26.0206,VALID,88,VALID,0.561328,
2009-09-04, 03:23:04,VALID,1001.62,VALID,0,VALID,85.6342,VALID,0,VALID,26.0381,VALID,71,VALID,0.360156,
2009-09-04, 03:24:04,VALID,1001.62,VALID,0,VALID,85.6418,VALID,0,VALID,26.0401,VALID,51,VALID,0.302734,
2009-09-04, 03:25:04,VALID,1001.59,VALID,0,VALID,85.7105,VALID,0,VALID,26.0187,VALID,64,VALID,0.592188,
2009-09-04, 03:26:04,VALID,1001.61,VALID,0,VALID,85.7181,VALID,0,VALID,25.9992,VALID,68,VALID,0.245312,
2009-09-04, 03:27:04,VALID,1001.61,VALID,0,VALID,85.7791,VALID,0,VALID,26.0187,VALID,64,VALID,0.923437,
2009-09-04, 03:28:04,VALID,1001.62,VALID,0,VALID,85.6494,VALID,0,VALID,26.0401,VALID,71,VALID,0.5875,
2009-09-04, 03:29:04,VALID,1001.62,VALID,0,VALID,85.6647,VALID,0,VALID,26.0206,VALID,71,VALID,0.457812,
2009-09-04, 03:30:04,VALID,1001.6,VALID,0,VALID,85.7105,VALID,0,VALID,25.9992,VALID,71,VALID,0.426172,
2009-09-04, 03:31:04,VALID,1001.62,VALID,0,VALID,85.8249,VALID,0,VALID,25.9622,VALID,71,VALID,0.252734,
2009-09-04, 03:32:04,VALID,1001.59,VALID,0,VALID,86.0233,VALID,0,VALID,25.9427,VALID,77,VALID,0.3125,
2009-09-04, 03:33:04,VALID,1001.62,VALID,0,VALID,86.0614,VALID,0,VALID,25.9038,VALID,45,VALID,0.373828,
2009-09-04, 03:34:04,VALID,1001.61,VALID,0,VALID,86.3742,VALID,0,VALID,25.8453,VALID,31,VALID,0.471484,
2009-09-04, 03:35:04,VALID,1001.57,VALID,0,VALID,86.6565,VALID,0,VALID,25.746,VALID,48,VALID,0.397266,
2009-09-04, 03:36:04,VALID,1001.61,VALID,0,VALID,86.9616,VALID,0,VALID,25.6895,VALID,34,VALID,0.638281,
2009-09-04, 03:37:04,VALID,1001.6,VALID,0,VALID,87.0074,VALID,0,VALID,25.6486,VALID,39,VALID,0.213281,
2009-09-04, 03:38:04,VALID,1001.62,VALID,0,VALID,87.2515,VALID,0,VALID,25.6292,VALID,1,VALID,0.829297,
2009-09-04, 03:39:04,VALID,1001.64,VALID,0,VALID,87.2744,VALID,0,VALID,25.6311,VALID,40,VALID,0.5125,
2009-09-04, 03:40:04,VALID,1001.62,VALID,0,VALID,87.3583,VALID,0,VALID,25.6311,VALID,58,VALID,0.319922,
2009-09-04, 03:41:04,VALID,1001.63,VALID,0,VALID,87.3965,VALID,0,VALID,25.6311,VALID,58,VALID,0.157031,
2009-09-04, 03:42:04,VALID,1001.64,VALID,0,VALID,87.5414,VALID,0,VALID,25.5902,VALID,32,VALID,0.566406,
2009-09-04, 03:43:04,VALID,1001.65,VALID,0,VALID,87.7169,VALID,0,VALID,25.5727,VALID,47,VALID,0.510547,
2009-09-04, 03:44:04,VALID,1001.64,VALID,0,VALID,87.7092,VALID,0,VALID,25.6311,VALID,33,VALID,0.709375,
2009-09-04, 03:45:04,VALID,1001.66,VALID,0,VALID,87.3354,VALID,0,VALID,25.709,VALID,54,VALID,0.375781,
2009-09-04, 03:46:04,VALID,1001.65,VALID,0,VALID,87.1371,VALID,0,VALID,25.709,VALID,75,VALID,0.614844,